Kezdőlap
METAR-TAF:

METAR-TAF

Repülőterek :

Ortonville Municipal Airport (Martinson Field)

Ortonville, Minnesota, Amerikai Egyesült Államok

földrajzi szélesség: 45-18-20N, földrajzi hosszúság: 096-25-28W, magasság: 335 m

Jelenlegi meteorológiai megfigyelések

A jelentés 24 perccel ezelõtt készült, 11:35 UTC
Délkeleti szél 8 kt
Hőmérséklet -16°C
Páratartalom 84%
Légköri nyomás 1025 hPa
Látótávolság: 16.1 km

METAR: KVVV 081135Z 14008KT 10SM M16/M18 A3027 RMK AO2

Idő: 05:59 (11:59 UTC)


TAF: hiányzik

Meteorológiai megfigyelések és előrejelzések több, mint 4000 repülőtéren (METAR és TAF jelentéseket).

A térképen piros és sárga pontok jelzik az elérhető meteorológiai állomásokat.

Mozgassa az egeret a pont fölött, hogy megjelenjen az állomás neve.

Azután kattintson az időjárási megfigyelések és előrejelzések megtekintéséhez.

A térkép megváltoztatása: kattintson a fekete keresztel jelölt zöld gombra ráközelítéshez, a vonallal jelölt zöld gombra távolításhoz, vagy a zöld nyilakra a szomszédos térképek eléréséhez.


METAR-TAF: